SWR1244 LSGG-LGIR

Flight info

Callsign SWR1244
Flight time N/A
Altitude 37000
Route MEDAM DCT NITAM DCT MOGBO DCT KODOK DCT TOP DCT LURUT DCT IBENI DCT KOFER DCT PINDO DCT PIKOS DCT KEA UL607 GIVIS T514 XAVIS
Aircraft A320/M-SDE3FGHIRWY/LB1

Departure

Time 2026-05-04 15:38
Airport Geneva International Airport (LSGG)

Arrival

Time N/A
Airport Heraklion International Nikos Kazantzakis Airport (LGIR)
Time Latitude Longitude Altitude Speed Heading
2026-05-04 14:47 46.23156 6.10741 1401 ft 0 kts 135°
2026-05-04 15:29 46.23161 6.10734 1405 ft 4 kts 133°
2026-05-04 15:30 46.23171 6.10665 1395 ft 0 kts 46°
2026-05-04 15:32 46.23206 6.10719 1397 ft 8 kts 46°
2026-05-04 15:32 46.23323 6.10805 1397 ft 13 kts 24°
2026-05-04 15:33 46.23453 6.10987 1398 ft 14 kts 45°
2026-05-04 15:34 46.23698 6.11075 1386 ft 16 kts 18°
2026-05-04 15:34 46.23796 6.11216 1376 ft 23 kts 45°
2026-05-04 15:34 46.24051 6.11586 1370 ft 24 kts 45°
2026-05-04 15:35 46.24242 6.11872 1362 ft 19 kts 46°
2026-05-04 15:35 46.24336 6.12009 1364 ft 19 kts 44°
2026-05-04 15:35 46.24425 6.12137 1370 ft 17 kts 45°
2026-05-04 15:36 46.24628 6.12437 1368 ft 28 kts 45°
2026-05-04 15:36 46.24780 6.12644 1362 ft 31 kts 32°
2026-05-04 15:36 46.24951 6.12719 1368 ft 19 kts 347°
2026-05-04 15:37 46.24949 6.12580 1371 ft 18 kts 228°
2026-05-04 15:37 46.24762 6.12303 1372 ft 72 kts 225°
2026-05-04 15:37 46.24255 6.11554 1374 ft 134 kts 225°
2026-05-04 15:37 46.23498 6.10434 1530 ft 168 kts 226°
2026-05-04 15:38 46.22643 6.09186 1995 ft 185 kts 227°
2026-05-04 15:38 46.21689 6.07773 2421 ft 208 kts 226°
2026-05-04 15:38 46.20631 6.06213 2907 ft 232 kts 226°
2026-05-04 15:38 46.19437 6.04462 3404 ft 255 kts 225°
2026-05-04 15:39 46.18150 6.02584 4259 ft 262 kts 225°
2026-05-04 15:39 46.16865 6.00714 5231 ft 264 kts 224°
2026-05-04 15:39 46.14289 5.96918 7078 ft 268 kts 223°
2026-05-04 15:40 46.12795 5.95370 8115 ft 263 kts 205°
2026-05-04 15:40 46.11017 5.94736 8992 ft 268 kts 182°
2026-05-04 15:40 46.09168 5.95258 9836 ft 278 kts 158°
2026-05-04 15:40 46.07604 5.96975 10609 ft 291 kts 134°
2026-05-04 15:41 46.06344 5.99410 11000 ft 315 kts 130°
2026-05-04 15:41 46.05026 6.02085 11281 ft 340 kts 129°
2026-05-04 15:41 46.03638 6.04949 11771 ft 354 kts 129°
2026-05-04 15:41 46.02222 6.07884 12489 ft 361 kts 129°
2026-05-04 15:42 46.00777 6.10866 13239 ft 365 kts 129°
2026-05-04 15:42 45.99308 6.13871 13974 ft 369 kts 129°
2026-05-04 15:42 45.97823 6.16891 14653 ft 372 kts 129°
2026-05-04 15:42 45.96318 6.19939 15283 ft 376 kts 129°
2026-05-04 15:43 45.94637 6.22822 15888 ft 375 kts 140°
2026-05-04 15:43 45.92628 6.25194 16515 ft 375 kts 148°
2026-05-04 15:43 45.90504 6.27416 17099 ft 379 kts 148°
2026-05-04 15:43 45.88367 6.29653 17613 ft 383 kts 148°
2026-05-04 15:44 45.86230 6.31909 18121 ft 387 kts 147°
2026-05-04 15:44 45.84060 6.34221 18725 ft 389 kts 147°
2026-05-04 15:44 45.81884 6.36543 19301 ft 391 kts 147°
2026-05-04 15:44 45.79694 6.38878 19832 ft 394 kts 147°
2026-05-04 15:45 45.77461 6.41257 20355 ft 397 kts 147°
2026-05-04 15:45 45.75258 6.43597 20862 ft 400 kts 147°
2026-05-04 15:45 45.73012 6.45978 21374 ft 403 kts 147°
2026-05-04 15:45 45.70752 6.48370 21873 ft 406 kts 147°
2026-05-04 15:46 45.68469 6.50782 22307 ft 408 kts 147°
2026-05-04 15:46 45.66170 6.53209 22742 ft 411 kts 147°
2026-05-04 15:46 45.63855 6.55655 23168 ft 414 kts 147°
2026-05-04 15:46 45.61527 6.58110 23641 ft 417 kts 147°
2026-05-04 15:47 45.59189 6.60572 24003 ft 419 kts 147°
2026-05-04 15:47 45.56827 6.63051 24404 ft 422 kts 147°
2026-05-04 15:47 45.54487 6.65501 24754 ft 424 kts 147°
2026-05-04 15:47 45.52108 6.67986 25156 ft 427 kts 148°
2026-05-04 15:48 45.49699 6.70497 25576 ft 430 kts 148°
2026-05-04 15:48 45.47269 6.73035 25951 ft 432 kts 148°
2026-05-04 15:48 45.42383 6.78096 26721 ft 435 kts 149°
2026-05-04 15:49 45.39905 6.80593 27043 ft 438 kts 149°
2026-05-04 15:49 45.37403 6.83083 27415 ft 440 kts 149°
2026-05-04 15:49 45.34912 6.85553 27728 ft 443 kts 149°
2026-05-04 15:49 45.32350 6.88096 28032 ft 445 kts 149°
2026-05-04 15:50 45.29828 6.90604 28345 ft 448 kts 149°
2026-05-04 15:50 45.27272 6.93164 28665 ft 451 kts 148°
2026-05-04 15:50 45.24879 6.96115 28913 ft 458 kts 140°
2026-05-04 15:50 45.22597 6.99284 29193 ft 461 kts 141°
2026-05-04 15:51 45.20293 7.02472 29497 ft 463 kts 141°
2026-05-04 15:51 45.17985 7.05661 29967 ft 462 kts 141°
2026-05-04 15:51 45.15682 7.08837 30381 ft 461 kts 141°
2026-05-04 15:51 45.14162 7.10927 30584 ft 462 kts 141°
2026-05-04 15:52 45.11856 7.14097 30888 ft 463 kts 140°
2026-05-04 15:52 45.09105 7.18781 31244 ft 471 kts 130°
2026-05-04 15:52 45.07219 7.22585 31542 ft 471 kts 130°
2026-05-04 15:52 45.05966 7.25113 31762 ft 472 kts 130°
2026-05-04 15:53 45.04080 7.28917 32064 ft 472 kts 130°
2026-05-04 15:53 45.02198 7.32705 32376 ft 472 kts 130°
2026-05-04 15:53 45.00318 7.36512 32685 ft 473 kts 128°
2026-05-04 15:53 44.98713 7.40608 33039 ft 480 kts 119°
2026-05-04 15:54 44.97558 7.45063 33367 ft 486 kts 109°
2026-05-04 15:54 44.96821 7.49732 33693 ft 489 kts 106°
2026-05-04 15:54 44.96131 7.54428 33999 ft 489 kts 106°
2026-05-04 15:54 44.95433 7.59131 34295 ft 489 kts 106°
2026-05-04 15:55 44.94739 7.63762 34567 ft 489 kts 106°
2026-05-04 15:55 44.94057 7.68481 34811 ft 490 kts 104°
2026-05-04 15:55 44.93495 7.73290 35070 ft 492 kts 101°
2026-05-04 15:55 44.93060 7.78018 35342 ft 492 kts 100°
2026-05-04 15:56 44.92687 7.82825 35609 ft 492 kts 99°
2026-05-04 15:56 44.92328 7.87619 35875 ft 492 kts 99°
2026-05-04 15:56 44.91904 7.92427 36134 ft 491 kts 101°
2026-05-04 15:56 44.91405 7.97178 36391 ft 490 kts 102°
2026-05-04 15:57 44.90846 8.01914 36618 ft 489 kts 103°
2026-05-04 15:57 44.90255 8.06639 36814 ft 489 kts 103°
2026-05-04 15:57 44.89660 8.11362 37037 ft 489 kts 103°
2026-05-04 15:57 44.89075 8.16086 37108 ft 490 kts 103°
2026-05-04 15:58 44.87944 8.25589 37103 ft 491 kts 102°
2026-05-04 15:58 44.86841 8.35079 37103 ft 491 kts 102°
2026-05-04 15:59 44.85721 8.44571 37104 ft 490 kts 102°
2026-05-04 15:59 44.84580 8.54037 37101 ft 490 kts 102°
2026-05-04 16:00 44.83431 8.63494 37104 ft 490 kts 103°
2026-05-04 16:00 44.82276 8.72968 37110 ft 490 kts 103°
2026-05-04 16:01 44.81117 8.82432 37104 ft 490 kts 102°
2026-05-04 16:01 44.79954 8.91840 37114 ft 491 kts 103°
2026-05-04 16:02 44.78776 9.01313 37109 ft 490 kts 103°
2026-05-04 16:03 44.76986 9.15521 37093 ft 491 kts 103°
2026-05-04 16:03 44.75793 9.24928 37100 ft 491 kts 103°
2026-05-04 16:04 44.74588 9.34403 37104 ft 491 kts 103°
2026-05-04 16:04 44.72776 9.48536 37103 ft 491 kts 103°
2026-05-04 16:05 44.71550 9.57983 37096 ft 491 kts 102°
2026-05-04 16:06 44.69703 9.72139 37093 ft 491 kts 102°
2026-05-04 16:07 44.67204 9.90992 37089 ft 491 kts 102°
2026-05-04 16:08 44.64682 10.09797 37083 ft 491 kts 102°
2026-05-04 16:09 44.61483 10.33328 37095 ft 490 kts 102°
2026-05-04 16:10 44.58890 10.52043 37104 ft 489 kts 102°
2026-05-04 16:11 44.56276 10.70784 37108 ft 488 kts 102°
2026-05-04 16:12 44.52302 10.98709 37123 ft 487 kts 103°
2026-05-04 16:13 44.49367 11.17212 37130 ft 486 kts 104°
2026-05-04 16:14 44.46344 11.35669 37074 ft 486 kts 104°
2026-05-04 16:16 44.42596 11.58647 37106 ft 485 kts 104°
2026-05-04 16:17 44.38771 11.81592 37124 ft 483 kts 104°
2026-05-04 16:18 44.35708 11.99853 37115 ft 484 kts 104°
2026-05-04 16:19 44.31821 12.22715 37115 ft 485 kts 104°
2026-05-04 16:20 44.27880 12.45596 37092 ft 485 kts 104°
2026-05-04 16:22 44.23896 12.68408 37096 ft 484 kts 104°
2026-05-04 16:23 44.19084 12.95643 37097 ft 481 kts 104°
2026-05-04 16:25 44.14228 13.22709 37097 ft 480 kts 104°
2026-05-04 16:26 44.08492 13.54196 37093 ft 479 kts 105°
2026-05-04 16:28 44.04329 13.76587 37098 ft 478 kts 105°
2026-05-04 16:29 43.95680 14.06239 37101 ft 475 kts 121°
2026-05-04 16:31 43.87550 14.26233 37080 ft 475 kts 121°
2026-05-04 16:32 43.77718 14.50075 37085 ft 476 kts 121°
2026-05-04 16:33 43.71120 14.65975 37098 ft 477 kts 121°
2026-05-04 16:34 43.66162 14.77893 37086 ft 477 kts 121°
2026-05-04 16:35 43.56204 15.01649 37080 ft 477 kts 121°
2026-05-04 16:36 43.51202 15.13506 37091 ft 477 kts 121°
2026-05-04 16:37 43.46208 15.25291 37094 ft 477 kts 121°
2026-05-04 16:38 43.39500 15.41053 37088 ft 477 kts 121°
2026-05-04 16:39 43.31070 15.60746 37084 ft 478 kts 121°
2026-05-04 16:40 43.24308 15.76438 37089 ft 479 kts 121°
2026-05-04 16:41 43.15795 15.96079 37095 ft 479 kts 121°
2026-05-04 16:43 43.07241 16.15687 37101 ft 480 kts 121°